Preview of NWS' New Version of Forecast
This preview is not operational and should not be used for support decisions.

Regional Weather Roundup (RWR)

Issued by National Weather Service (NWS)

                            
000
ASUS44 KMEG 250710
RWRTN 
TENNESSEE HOURLY STATE WEATHER ROUNDUP
NATIONAL WEATHER SERVICE MEMPHIS TN
200 AM CDT SUN AUG 25 2019

TNZ002-004-019-021-049-052-054-088>092-250800-
WEST TENNESSEE
  
CITY           SKY/WX    TMP DP  RH WIND       PRES   REMARKS
MEMPHIS INTL   LGT RAIN  74  72  93 CALM      29.97F                  
NWS MEMPHIS      N/A     75 N/A N/A MISG        N/A                   
JACKSON        CLOUDY    75  73  93 N5        30.00F                  
DYERSBURG      CLOUDY    72  69  90 E3        30.00F                  
SOMERVILLE     CLEAR     73  72  94 CALM      29.98F                  
COVINGTON      CLOUDY    73  73 100 CALM      29.98F                  
UNION CITY     MOCLDY    72  64  78 NE3       29.99F                  
BOLIVAR        CLOUDY    73  72  94 CALM      29.98F                  
PARIS          CLOUDY    70  64  83 E3        30.00F                  
HUNTINGDON     CLOUDY    72  66  83 CALM      30.00F                  
LEXINGTON      CLOUDY    73  70  88 CALM      29.99F                  
SELMER         CLOUDY    73  72  94 CALM      29.99S                  
SAVANNAH       FOG       73  73 100 CALM      29.98F VSB 1/2          
$$

TNZ008-025-027-028-033-062-065-066-250800-
NORTH MIDDLE TENNESSEE
  
CITY           SKY/WX    TMP DP  RH WIND       PRES   REMARKS
NASHVILLE      MOCLDY    73  66  78 NE6       30.02F                  
DICKSON        SUNNY     70  64  83 CALM      30.01F                  
PORTLAND       PTCLDY    66  61  82 CALM      30.02F                  
CLARKSVILLE    FAIR      69  61  75 NE5       30.02F                  
LEBANON        CLOUDY    72  66  83 N3        30.00F                  
SMYRNA         MOCLDY    73  69  87 NE3       30.02F                  
MURFREESBORO   CLOUDY    72  68  88 CALM      30.00F                  
COOKEVILLE     PTCLDY    68  68 100 CALM      30.04F                  
LIVINGSTON     SUNNY     68  64  88 NE5       30.05F                  
GALLATIN       CLOUDY    70  63  78 NE3       30.04F                  
CROSSVILLE     FAIR      68  65  90 VRB3      30.09F                  
ROCKWOOD       PTSUNNY   68  66  94 SE6       30.08F                  
$$

TNZ061-075-076-078-094-096-097-250800-
SOUTH MIDDLE TENNESSEE
  
CITY           SKY/WX    TMP DP  RH WIND       PRES   REMARKS
LAWRENCEBURG   MOSUNNY   72  70  94 CALM      30.01S                  
LEWISBURG      SUNNY     68  68 100 CALM      30.00F                  
FAYETTEVILLE   PTCLDY    73  72  94 CALM      30.01F                  
TULLAHOMA      CLEAR     73  70  88 CALM      30.02F                  
WINCHESTER     PTCLDY    73  70  88 CALM      30.02F                  
MCMINNVILLE    PTCLDY    72  70  94 NE5       30.03F                  
COLUMBIA       CLEAR     72  72 100 CALM      29.99F                  
SHELBYVILLE    PTCLDY    72  70  94 CALM      30.01F                  
$$

TNZ017-018-042-046-047-250800-
NORTHEAST TENNESSEE
  
CITY           SKY/WX    TMP DP  RH WIND       PRES   REMARKS
TRI CITIES     FAIR      60  57  89 CALM      30.13F                  
ELIZABETHTON   MOCLDY    64  55  72 E6        30.14S                  
GREENEVILLE    MOSUNNY   64  59  82 CALM      30.11S                  
$$

TNZ012-013-036-069-073-074-250800-
CENTRAL EAST TENNESSEE
  
CITY           SKY/WX    TMP DP  RH WIND       PRES   REMARKS
KNOXVILLE      CLOUDY    70  63  78 NE9       30.06S                  
OAK RIDGE      MOCLDY    71  64  78 VRB5      30.08F                  
DOWNTOWN KNOXV CLOUDY    70  64  83 CALM      30.07S                  
GATLINBURG     CLOUDY    70  64  83 NE5       30.07R                  
MORRISTOWN     CLOUDY    66  61  82 E6        30.08S                  
JACKSBORO      PTCLDY    68  66  94 CALM      30.12S                  
$$

TNZ083-085-099-250800-
SOUTHEAST TENNESSEE
  
CITY           SKY/WX    TMP DP  RH WIND       PRES   REMARKS
CHATTANOOGA    MOCLDY    75  71  87 SE5       30.04F                  
DAYTON         CLOUDY    75  72  88 CALM      30.03F                  
$$

SKY/WX REPORTED AS FAIR MEANS FEW OR NO CLOUDS BELOW
12 THOUSAND FEET.